Wind_Speed
32 32 32 31 31 30 31 31 32 32 32 32 31 31 31 30 30 29 29 29 30 30 30 30 30 31 31 30 30 29 29 28 27 27 26 26 26 25 24 24 23 23 22
35 34 34 34 33 33 33 33 34 34 34 34 33 33 33 33 33 32 31 32 32 32 32 32 32 33 33 33 33 32 31 30 30 29 28 27 27 27 27 26 25 25 24
38 37 38 37 37 36 36 36 37 37 36 36 36 35 35 35 35 35 34 34 34 34 33 34 34 34 35 35 35 36 35 33 32 32 31 30 29 29 28 27 27 26 26
41 41 41 41 40 40 40 40 39 39 40 39 38 38 38 37 38 37 37 36 36 36 36 35 36 36 37 37 38 38 38 37 36 35 35 34 33 32 31 30 29 28 28
44 43 43 43 43 43 43 42 42 42 42 42 41 41 40 40 39 39 39 39 39 39 39 39 38 39 39 39 39 39 39 39 39 38 37 36 35 34 33 32 31 31 31
47 47 46 47 47 46 46 45 45 45 45 45 45 44 43 43 43 42 42 42 42 42 42 42 41 41 41 41 41 41 41 41 40 40 39 38 37 36 35 34 33 33 32
50 50 50 50 50 50 50 49 49 49 49 49 49 47 47 46 46 46 45 44 45 45 45 45 44 44 44 44 43 43 43 43 43 42 41 40 39 39 38 37 35 34 33
53 53 52 53 53 53 53 53 53 53 53 53 53 52 51 50 49 49 49 48 47 48 48 48 48 47 47 47 46 46 45 45 45 44 44 43 42 41 41 39 37 37 36
54 54 54 54 55 55 55 56 57 57 56 56 56 56 55 54 53 52 52 52 51 51 51 51 51 51 50 50 49 48 48 47 46 46 45 45 44 44 43 42 41 40 39
55 56 56 56 56 57 57 58 59 59 59 59 59 58 58 58 57 55 54 54 55 54 54 54 53 53 53 52 52 51 51 50 49 48 47 46 45 45 45 45 44 43 41
55 56 56 57 58 59 60 60 61 61 61 60 60 59 59 59 60 59 58 56 56 56 56 56 56 55 55 54 54 53 53 52 51 50 50 49 48 47 46 46 46 45 44
56 56 57 58 59 61 61 61 61 62 62 61 61 61 60 60 60 61 61 59 58 57 57 58 58 57 57 57 56 55 55 54 54 53 52 51 50 49 48 48 47 47 46
56 58 58 59 60 61 62 62 62 62 62 62 62 62 61 61 61 61 61 61 60 59 58 58 59 59 59 59 58 58 57 56 56 55 54 53 52 52 51 51 50 49 48
56 57 58 59 60 61 61 61 62 62 63 63 62 62 62 62 61 61 62 62 62 60 59 58 59 60 60 60 60 59 59 58 58 57 56 55 54 54 53 52 52 52 50
56 56 58 59 60 60 61 61 61 62 63 63 62 62 62 62 62 62 62 63 63 62 60 58 59 60 60 61 61 61 61 60 60 59 58 57 56 55 54 54 54 53 53
56 57 58 59 59 60 60 60 61 61 61 61 62 62 61 61 61 61 61 62 62 63 62 59 59 60 61 61 62 62 62 61 60 60 59 59 58 57 56 56 55 55 54
56 56 57 57 58 59 60 60 59 60 60 60 60 60 61 61 61 61 61 61 62 62 61 59 58 59 60 61 61 62 62 62 61 60 60 60 60 58 58 58 57 56 56
56 56 56 56 57 58 59 59 58 58 58 58 59 59 59 60 59 60 60 60 60 60 60 58 58 58 58 59 60 60 61 61 61 61 61 61 61 60 60 59 58 58 58
55 56 56 56 55 56 57 58 58 56 56 57 56 57 57 58 58 57 57 57 57 58 58 57 57 56 56 57 58 59 59 60 60 61 61 62 62 61 61 61 60 60 60
54 54 54 55 55 56 56 57 57 56 55 55 54 54 55 56 56 55 55 56 56 57 57 57 57 56 56 56 57 57 58 59 59 60 61 61 62 61 61 61 61 60 60
53 53 52 53 54 55 55 55 55 54 53 53 51 51 52 53 53 54 54 54 54 54 55 56 56 56 56 55 55 56 57 57 58 58 59 59 61 61 61 61 61 61 60
51 50 50 51 52 52 53 54 54 53 52 51 51 50 50 51 52 53 53 53 52 52 53 54 54 54 55 55 55 55 55 56 56 56 57 57 59 59 60 60 60 60 59
51 51 50 50 50 51 51 52 52 51 49 49 49 49 48 48 50 50 50 49 49 49 50 51 52 51 52 53 54 54 54 54 54 54 55 55 56 57 57 58 58 59 59
50 50 50 51 51 51 50 50 49 48 47 47 46 46 46 46 46 47 48 47 46 46 47 49 49 49 49 50 51 52 52 53 52 52 53 52 52 54 55 56 58 58 59
48 48 49 50 50 50 49 49 48 47 46 45 45 45 45 45 45 45 46 44 44 44 44 45 45 47 48 49 50 50 51 51 51 50 50 51 50 51 53 54 55 56 57
47 47 47 48 48 49 49 48 48 46 45 44 45 45 44 44 44 44 45 44 43 42 42 42 43 43 45 47 48 49 49 50 50 48 48 49 49 50 50 51 53 54 55
Wind_Direction
259 262 262 264 265 266 267 266 265 265 265 265 266 266 266 265 265 264 263 263 262 261 260 259 258 257 256 257 257 257 257 258 258 259 259 259 258 258 258 260 263 263 264
260 261 263 264 265 266 267 267 266 265 266 266 265 265 266 266 266 265 264 264 263 262 260 259 258 257 256 257 258 257 257 257 257 258 258 259 258 258 260 261 262 262 263
261 261 263 265 265 266 266 267 267 266 265 265 265 265 264 265 265 265 264 264 263 262 261 260 259 258 257 257 256 256 256 256 257 257 258 258 258 258 259 260 261 262 262
262 262 263 264 265 266 266 267 266 266 265 265 265 265 264 264 264 264 264 263 262 262 262 261 260 259 258 257 257 257 257 256 257 257 258 258 258 258 258 259 260 261 262
262 262 263 264 265 266 266 266 266 266 266 265 265 265 264 264 264 264 263 262 261 261 261 262 261 260 259 258 258 257 257 257 257 257 257 257 257 258 258 259 260 261 262
262 263 263 263 264 265 266 266 267 266 266 265 265 264 264 264 263 264 263 262 262 261 260 261 261 260 259 259 258 257 256 256 257 257 256 256 256 257 257 258 259 260 261
263 263 262 263 264 265 266 266 266 267 267 266 265 264 264 265 264 264 264 263 263 262 261 260 259 259 259 259 258 258 257 256 256 257 256 255 256 256 257 257 257 259 260
264 264 264 265 265 265 265 266 266 267 266 266 265 264 263 263 263 263 263 263 263 263 262 261 260 260 259 258 257 258 257 256 256 256 255 255 255 255 255 256 256 257 258
265 264 264 265 266 266 266 266 266 267 266 266 266 266 265 263 262 262 262 263 263 263 262 262 261 260 259 257 256 256 256 256 256 255 255 256 255 255 254 255 256 256 257
266 265 265 265 267 267 267 267 267 267 267 266 266 266 266 265 264 261 261 262 262 261 261 261 260 259 259 258 256 255 255 255 255 254 254 255 256 255 254 254 255 256 256
268 268 267 266 267 268 268 268 268 268 267 266 265 265 265 265 264 263 261 261 261 261 260 260 260 259 258 257 256 255 255 254 254 254 254 254 254 255 255 254 255 255 255
269 269 269 268 268 269 268 269 268 268 267 266 265 264 264 264 264 264 262 261 260 260 259 259 259 258 257 257 256 255 254 253 253 253 253 253 253 254 255 255 255 255 255
271 271 271 270 269 269 268 268 268 267 267 266 265 264 264 264 263 263 263 262 260 259 258 258 258 258 257 256 255 255 254 253 253 253 252 252 253 253 254 254 255 255 255
272 272 273 272 270 269 268 268 268 267 267 265 264 264 263 264 263 263 263 262 261 259 258 257 257 258 257 256 255 254 254 253 253 252 252 251 252 252 252 253 254 254 255
273 274 274 274 272 269 269 269 269 268 267 265 265 264 263 263 263 262 263 262 262 260 258 256 256 256 256 255 254 254 254 253 253 252 251 251 251 251 251 252 253 253 254
276 275 277 276 274 271 269 270 270 269 268 266 265 264 263 263 263 262 262 262 262 261 259 257 256 255 254 254 254 254 253 252 252 251 251 250 250 250 251 251 252 252 253
278 276 276 277 275 273 271 270 271 270 268 267 265 264 263 262 262 261 261 261 261 261 260 258 257 255 254 254 254 254 253 252 251 251 250 250 250 250 250 251 251 251 252
279 277 276 276 276 274 272 271 270 270 269 267 265 264 263 262 262 261 261 260 260 260 260 258 257 256 254 254 254 253 253 252 251 251 250 250 250 250 250 250 251 251 252
279 278 277 276 276 275 272 271 270 269 267 266 266 264 263 262 261 260 260 260 259 259 258 258 257 256 255 255 254 253 253 252 252 252 251 250 250 250 250 250 250 251 252
279 279 278 276 276 276 274 271 270 269 268 267 267 265 264 262 260 259 259 260 259 259 258 258 257 256 255 255 254 253 253 253 252 252 252 251 250 250 250 249 250 251 251
280 279 279 278 277 277 275 272 270 269 268 267 266 264 263 261 261 259 259 259 261 260 259 258 257 256 255 254 254 254 253 253 252 252 252 252 251 251 250 250 249 250 251
281 281 280 280 278 277 275 273 271 269 267 266 266 264 263 262 261 260 259 259 260 260 259 258 257 256 255 255 254 254 254 253 252 252 252 251 252 251 250 250 249 249 250
282 281 280 280 279 278 275 273 272 269 268 267 266 264 263 263 262 260 258 259 260 260 259 258 257 256 255 255 254 254 253 253 252 250 250 250 251 251 251 250 249 249 249
283 282 281 281 280 279 277 275 273 271 268 267 266 265 264 263 261 261 259 259 259 259 258 257 257 256 255 254 254 253 253 252 251 250 250 251 250 251 250 250 250 250 249
284 283 282 282 281 279 277 274 272 269 268 267 266 265 265 263 261 260 259 259 259 258 256 256 256 254 253 253 254 253 253 252 251 250 251 252 251 251 251 252 251 250 250
286 285 284 283 281 278 276 274 271 269 268 267 266 265 264 263 260 260 259 258 258 257 257 255 255 254 253 253 254 253 253 253 252 250 251 252 253 252 251 251 251 250 250
Height
5784 5786 5787 5788 5790 5791 5792 5793 5793 5794 5795 5796 5797 5798 5799 5800 5801 5802 5803 5804 5805 5806 5807 5808 5809 5810 5811 5812 5814 5815 5816 5817 5818 5819 5820 5821 5822 5823 5824 5825 5825 5826 5827
5776 5777 5779 5780 5782 5783 5784 5785 5785 5786 5787 5788 5789 5790 5791 5792 5793 5794 5795 5796 5797 5798 5799 5800 5802 5803 5804 5805 5807 5808 5809 5810 5812 5813 5814 5815 5816 5817 5818 5819 5820 5821 5821
5767 5768 5770 5771 5773 5774 5775 5776 5777 5777 5778 5780 5781 5782 5783 5784 5785 5786 5787 5788 5789 5790 5791 5792 5793 5795 5796 5798 5799 5800 5802 5803 5805 5806 5807 5808 5809 5811 5812 5813 5814 5814 5815
5757 5758 5760 5761 5763 5764 5765 5766 5767 5768 5769 5770 5771 5772 5773 5774 5775 5776 5778 5779 5780 5781 5782 5783 5784 5786 5787 5789 5790 5791 5793 5795 5796 5798 5800 5801 5802 5803 5805 5806 5807 5808 5808
5746 5747 5749 5751 5752 5753 5754 5755 5757 5758 5759 5760 5761 5762 5763 5764 5765 5766 5767 5768 5770 5771 5772 5774 5775 5776 5778 5779 5781 5782 5784 5786 5787 5789 5791 5793 5794 5795 5797 5798 5799 5800 5802
5734 5735 5737 5739 5740 5741 5742 5744 5745 5746 5747 5748 5749 5751 5752 5753 5754 5755 5756 5757 5759 5760 5762 5763 5764 5766 5768 5769 5771 5772 5774 5776 5778 5780 5781 5784 5785 5787 5788 5790 5791 5792 5793
5721 5722 5724 5726 5727 5729 5730 5731 5732 5733 5734 5735 5736 5738 5740 5740 5742 5743 5744 5746 5747 5749 5750 5751 5753 5754 5756 5758 5760 5761 5763 5765 5767 5769 5771 5773 5776 5777 5779 5781 5782 5784 5785
5707 5708 5710 5711 5713 5715 5716 5716 5717 5719 5720 5720 5722 5724 5726 5729 5729 5730 5731 5732 5734 5736 5737 5738 5740 5742 5744 5746 5747 5749 5751 5753 5755 5758 5760 5763 5765 5767 5769 5771 5772 5774 5776
5692 5694 5695 5696 5698 5699 5700 5701 5702 5703 5704 5705 5706 5708 5710 5713 5716 5718 5718 5719 5720 5721 5723 5725 5726 5728 5730 5732 5734 5736 5738 5741 5743 5746 5748 5751 5753 5756 5758 5760 5762 5764 5766
5678 5679 5680 5681 5682 5683 5683 5684 5685 5686 5687 5689 5689 5690 5692 5694 5697 5702 5704 5704 5705 5706 5708 5710 5711 5713 5715 5717 5720 5722 5725 5727 5730 5733 5736 5738 5741 5744 5746 5749 5751 5753 5755
5662 5663 5664 5664 5665 5665 5666 5666 5667 5668 5669 5670 5672 5673 5674 5676 5678 5681 5686 5689 5689 5690 5692 5693 5695 5697 5699 5702 5704 5707 5710 5713 5716 5719 5722 5725 5728 5731 5734 5736 5739 5742 5744
5647 5647 5647 5647 5647 5648 5648 5648 5649 5649 5650 5652 5653 5655 5657 5658 5660 5662 5665 5669 5673 5675 5675 5677 5678 5681 5683 5685 5688 5692 5695 5698 5701 5705 5708 5711 5715 5718 5721 5724 5726 5729 5732
5631 5631 5630 5630 5630 5630 5630 5630 5631 5631 5632 5633 5635 5637 5638 5639 5641 5643 5645 5649 5653 5657 5659 5661 5662 5664 5666 5669 5672 5675 5679 5682 5686 5690 5693 5697 5700 5704 5707 5710 5713 5716 5719
5615 5614 5614 5613 5612 5612 5612 5612 5612 5613 5613 5615 5616 5618 5619 5621 5622 5624 5626 5629 5633 5638 5641 5644 5645 5646 5648 5651 5654 5658 5662 5666 5670 5673 5677 5681 5685 5689 5693 5696 5699 5703 5705
5599 5598 5597 5596 5595 5594 5594 5594 5594 5594 5595 5596 5597 5599 5600 5602 5604 5605 5607 5609 5613 5617 5623 5627 5628 5629 5630 5633 5636 5640 5644 5649 5653 5657 5661 5665 5670 5673 5677 5681 5685 5688 5692
5583 5582 5580 5578 5577 5576 5575 5575 5576 5576 5576 5577 5578 5580 5581 5583 5585 5587 5588 5590 5592 5596 5601 5608 5609 5611 5612 5615 5618 5621 5626 5630 5635 5640 5644 5649 5653 5658 5662 5666 5669 5673 5677
5567 5565 5563 5561 5560 5559 5558 5557 5558 5558 5558 5559 5560 5561 5563 5564 5566 5568 5570 5572 5574 5576 5580 5587 5589 5592 5594 5597 5600 5603 5608 5612 5617 5622 5627 5632 5636 5641 5645 5650 5654 5657 5662
5550 5548 5546 5545 5543 5542 5541 5540 5540 5540 5540 5541 5542 5543 5544 5546 5548 5550 5552 5554 5556 5558 5561 5567 5571 5574 5576 5579 5582 5585 5590 5594 5599 5604 5609 5614 5619 5624 5629 5633 5638 5642 5646
5535 5532 5530 5528 5527 5525 5524 5523 5523 5523 5523 5524 5524 5525 5527 5528 5530 5532 5534 5537 5539 5541 5544 5548 5553 5556 5559 5561 5564 5568 5572 5577 5582 5586 5591 5596 5601 5606 5611 5616 5621 5625 5630
5519 5517 5515 5512 5511 5509 5507 5506 5505 5506 5506 5507 5507 5508 5510 5511 5513 5515 5518 5520 5522 5524 5527 5530 5534 5538 5542 5544 5547 5551 5556 5560 5565 5569 5573 5578 5583 5588 5593 5599 5605 5609 5613
5504 5502 5499 5497 5495 5492 5491 5489 5489 5489 5490 5491 5492 5492 5493 5495 5497 5499 5501 5504 5505 5507 5510 5513 5517 5521 5525 5528 5531 5535 5539 5543 5547 5551 5555 5561 5566 5571 5575 5581 5586 5591 5596
5489 5487 5484 5482 5479 5477 5475 5473 5472 5473 5474 5475 5476 5477 5478 5479 5481 5483 5485 5488 5490 5491 5494 5497 5500 5504 5508 5511 5515 5518 5521 5526 5532 5537 5539 5544 5548 5553 5558 5563 5568 5573 5578
5475 5472 5470 5467 5464 5462 5459 5458 5457 5457 5458 5459 5460 5461 5463 5464 5466 5468 5470 5473 5475 5476 5479 5482 5485 5488 5492 5496 5499 5502 5505 5509 5515 5518 5521 5527 5531 5536 5541 5546 5551 5556 5561
5460 5457 5455 5452 5450 5447 5444 5443 5442 5442 5443 5445 5446 5447 5448 5450 5452 5453 5456 5459 5461 5463 5465 5467 5471 5474 5476 5479 5482 5486 5489 5493 5498 5502 5506 5512 5516 5520 5525 5529 5534 5539 5544
5445 5443 5440 5438 5435 5433 5430 5429 5427 5428 5429 5431 5432 5433 5434 5436 5439 5439 5442 5445 5448 5449 5451 5453 5456 5458 5461 5464 5467 5470 5474 5478 5483 5489 5492 5496 5501 5505 5509 5513 5518 5523 5528
5431 5428 5426 5423 5421 5419 5417 5415 5414 5414 5416 5418 5420 5420 5421 5422 5424 5425 5428 5431 5434 5436 5438 5440 5442 5445 5447 5450 5453 5456 5460 5464 5468 5474 5478 5481 5486 5489 5494 5499 5503 5507 5511